CW5376 Weather Reports


time (UTC)temp
C
wind
direction
speed
KPH
gust
KPH
rain 1hr
cm
rain 24hr
cm
rain mn
cm
humidity
%
barometer
mb
20260506034501 10 348 11.3 35.4 0.00 0.08 0.08 64 1013.5
20260506033001 10 275 12.9 30.6 0.00 0.08 0.08 62 1013.7
20260506031501 11 319 11.3 33.8 0.00 0.08 0.08 61 1013.1
20260506030003 11 321 16.1 32.2 0.00 0.08 0.08 61 1012.6
20260506024501 12 305 16.1 37.0 0.00 0.08 0.08 58 1012.1
20260506023001 12 252 8.0 12.9 0.00 0.08 0.08 60 1011.6
20260506021501 12 252 6.4 11.3 0.00 0.08 0.08 58 1011.3
20260506020000 13 245 8.0 12.9 0.00 0.08 0.08 56 1011.2
20260506014459 13 226 8.0 16.1 0.00 0.08 0.08 54 1010.7
20260506012959 14 229 9.7 16.1 0.00 0.08 0.08 53 1010.9
20260506011500 13 238 8.0 14.5 0.00 0.08 0.08 54 1010.7
20260506010004 13 234 9.7 12.9 0.00 0.08 0.08 55 1010.7
20260506003002 13 247 8.0 11.3 0.00 0.08 0.08 54 1010.7
20260506001501 14 207 4.8 8.0 0.00 0.08 0.08 53 1010.5
20260506000003 14 224 6.4 11.3 0.00 0.08 0.08 54 1010.7
20260505234500 15 255 8.0 12.9 0.00 0.08 0.08 54 1010.7
20260505233000 14 348 8.0 16.1 0.00 0.08 0.08 55 1010.7
20260505231501 14 275 12.9 20.9 0.00 0.08 0.08 56 1011.1
20260505230000 14 261 4.8 14.5 0.00 0.08 0.08 57 1010.9
20260505224459 12 293 3.2 9.7 0.00 0.08 0.08 69 1011.1
20260505222959 11 250 6.4 12.9 0.00 0.08 0.08 73 1011.3
20260505221459 11 258 16.1 27.4 0.00 0.08 0.08 75 1011.9
20260505220002 12 262 22.5 33.8 0.00 0.08 0.08 65 1011.9
20260505213001 14 236 12.9 20.9 0.00 0.08 0.08 57 1011.8
20260505211501 15 18 12.9 24.1 0.00 0.08 0.08 53 1011.8
20260505204500 14 22 9.7 24.1 0.00 0.08 0.08 57 1011.9
20260505201459 13 21 12.9 20.9 0.00 0.08 0.08 60 1012.4
20260505200001 12 22 11.3 19.3 0.03 0.08 0.08 64 1012.2
20260505194501 12 21 12.9 22.5 0.05 0.08 0.08 69 1012.5
20260505191501 11 19 11.3 16.1 0.05 0.08 0.08 79 1012.6
20260505190000 11 18 16.1 24.1 0.03 0.05 0.05 74 1013.0
20260505183000 14 234 11.3 17.7 0.00 0.03 0.03 54 1012.5
20260505181459 15 284 11.3 19.3 0.00 0.03 0.03 53 1012.6
20260505174500 15 269 4.8 16.1 0.00 0.03 0.03 51 1012.8
20260505173001 14 244 3.2 11.3 0.00 0.03 0.03 54 1012.8
20260505171500 13 73 4.8 12.9 0.00 0.03 0.03 57 1012.8
20260505170001 12 251 6.4 12.9 0.00 0.03 0.03 58 1013.1
20260505164459 12 271 9.7 16.1 0.00 0.03 0.03 62 1013.0
20260505161459 11 300 8.0 14.5 0.00 0.03 0.03 64 1013.3
20260505152958 11 338 8.0 19.3 0.03 0.03 0.03 65 1013.7
20260505151458 10 264 8.0 17.7 0.03 0.03 0.03 68 1013.6
20260505124458 13 312 6.4 14.5 0.00 0.00 0.00 45 1012.6
20260505122958 13 268 4.8 9.7 0.00 0.00 0.00 46 1012.8
20260505121459 13 267 4.8 9.7 0.00 0.00 0.00 45 1013.1
20260505120001 13 254 8.0 9.7 0.00 0.00 0.00 44 1012.7
20260505114458 13 225 6.4 8.0 0.00 0.00 0.00 42 1012.6
20260505112958 13 219 8.0 11.3 0.00 0.00 0.00 41 1012.6
20260505111459 13 239 8.0 12.9 0.00 0.00 0.00 40 1012.5
20260505101458 13 257 14.5 24.1 0.00 0.00 0.00 35 1012.5
20260505100000 13 229 12.9 19.3 0.00 0.00 0.00 35 1012.5
20260505094458 13 244 11.3 16.1 0.00 0.00 0.00 35 1012.5
20260505092959 13 238 11.3 17.7 0.00 0.00 0.00 34 1012.5
20260505091458 14 227 11.3 17.7 0.00 0.00 0.00 34 1012.5
20260505085959 15 245 14.5 20.9 0.00 0.00 0.00 33 1013.1
20260505084458 15 255 14.5 24.1 0.00 0.00 0.00 32 1013.2
20260505082959 15 273 14.5 25.7 0.00 0.00 0.00 32 1013.6
20260505081458 15 262 16.1 24.1 0.00 0.00 0.00 32 1013.2
20260505080000 15 243 19.3 30.6 0.00 0.00 0.00 32 1013.2
20260505072959 16 240 16.1 25.7 0.00 0.00 0.00 32 1013.2
20260505071459 16 262 14.5 24.1 0.00 0.00 0.00 31 1013.2
20260505070002 16 244 14.5 24.1 0.00 0.00 0.00 30 1013.1
20260505064500 16 258 14.5 19.3 0.00 0.00 0.00 29 1013.1
20260505063001 16 216 17.7 32.2 0.00 0.00 0.00 28 1012.7
20260505061501 17 250 17.7 27.4 0.00 0.00 0.00 27 1013.1
20260505060006 17 261 19.3 27.4 0.00 0.00 0.00 26 1013.1
20260505054502 17 252 19.3 29.0 0.00 0.00 0.00 25 1013.0
20260505053001 17 240 19.3 27.4 0.00 0.00 0.00 25 1012.6
20260505051501 18 257 17.7 25.7 0.00 0.00 0.00 25 1012.6
20260505041501 18 241 14.5 22.5 0.00 0.00 0.00 23 1012.5
20260505040000 18 252 12.9 16.1 0.00 0.00 0.00 23 1012.5